Flag for Russia Weather past 2 weeks in Samara, Russia

34 °F


Feels Like: 31 °F
Forecast: 29 / 39 °F
Wind: 3 mph from Southeast

Location: Samara

Current Time: Nov 25, 2015 at 1:21:42 PM

Latest Report: Nov 25, 2015 at 12:30 PM

Visibility: 3 mi

Pressure: 30.15 "Hg

Humidity: 93%

Dew point: 32 °F

Location of SamaraLocation

Historic Weather in Samara — Graph


Samara temperature yesterday

Maximum temperature yesterday: 48 °F (at 12:00 AM)
Minimum temperature yesterday: 32 °F (at 8:00 PM)
Average temperature yesterday: 39 °F

Past Weeks' High & Low Weather Summary

High48 °F (Nov 23, 12:30 AM)100% (Nov 13, 4:00 PM)30.27 "Hg (Nov 13, 4:00 PM)
Low7 °F (Nov 19, 8:00 AM)60% (Nov 10, 3:00 PM)29.39 "Hg (Nov 12, 3:30 AM)
Average29 °F90%29.90 "Hg
* Reported Nov 10 12:00 Noon — Nov 25 12:00 Noon, Samara, Weather by CustomWeather, © 2015

Note: Actual official high and low records may vary slightly from our data, if they occured in-between our weather recording intervals... More about our weather records


Samara weather history for previous 24 hours

Time TempWeatherWind HumidityBarometerVisibility
12:00 PM
Wed, Nov 25
34 °FFog.3 mph93%30.18 "Hg3 mi
11:30 AM34 °FLight rain. Fog.1 mph93%30.18 "Hg3 mi
11:00 AM34 °FLight rain. Fog.3 mph93%30.18 "Hg3 mi
10:30 AM32 °FLight rain. Ice fog.1 mph87%30.18 "Hg3 mi
10:00 AM32 °FLight rain. Ice fog.3 mph87%30.18 "Hg3 mi
9:30 AM32 °FIce fog.3 mph87%30.18 "Hg3 mi
9:00 AM32 °FIce fog.3 mph87%30.18 "Hg3 mi
8:30 AM32 °FLow clouds.1 mph93%30.18 "HgN/A
8:00 AM32 °FLow clouds.3 mph93%30.18 "HgN/A
7:30 AM32 °FIce fog.3 mph93%30.18 "Hg3 mi
7:00 AM32 °FIce fog.3 mph93%30.18 "Hg3 mi
6:30 AM32 °FIce fog.3 mph93%30.18 "Hg3 mi
6:00 AM32 °FIce fog.3 mph93%30.18 "Hg3 mi
5:30 AM32 °FLight rain. Mostly cloudy.3 mph93%30.18 "Hg3 mi
5:00 AM32 °FMostly cloudy.3 mph93%30.21 "HgN/A
4:00 AM32 °FMostly cloudy.1 mph93%30.24 "HgN/A
3:30 AM32 °FMostly cloudy.1 mph93%30.24 "HgN/A
3:00 AM32 °FMostly cloudy.1 mph93%30.24 "HgN/A
2:30 AM32 °FMostly cloudy.1 mph93%30.24 "HgN/A
2:00 AM32 °FMostly cloudy.3 mph93%30.24 "HgN/A
1:30 AM32 °FPartly cloudy.3 mph93%30.24 "HgN/A
1:00 AM32 °FPartly cloudy.1 mph93%30.24 "HgN/A
12:30 AM32 °FMostly cloudy.3 mph93%30.27 "HgN/A
12:00 AM32 °FMostly cloudy.No wind93%30.27 "HgN/A
11:30 PM
Tue, Nov 24
32 °FMostly cloudy.3 mph93%30.27 "HgN/A
11:00 PM32 °FMostly cloudy.3 mph93%30.27 "HgN/A
10:30 PM32 °FMostly cloudy.3 mph93%30.24 "HgN/A
10:00 PM34 °FMostly cloudy.1 mph87%30.24 "HgN/A
9:30 PM34 °FMostly cloudy.3 mph87%30.27 "HgN/A
9:00 PM32 °FMostly cloudy.1 mph93%30.27 "HgN/A
8:30 PM34 °FMostly cloudy.1 mph87%30.24 "HgN/A
8:00 PM32 °FMostly cloudy.No wind93%30.27 "HgN/A
7:30 PM34 °FMostly cloudy.3 mph87%30.27 "HgN/A
7:00 PM34 °FLight rain. Mostly cloudy.8 mph87%30.24 "HgN/A
6:30 PM36 °FMostly cloudy.3 mph81%30.27 "HgN/A
6:00 PM36 °FMostly cloudy.3 mph81%30.24 "HgN/A
5:30 PM36 °FMostly cloudy.6 mph81%30.24 "HgN/A
5:00 PM36 °FMostly cloudy.6 mph81%30.24 "HgN/A
4:30 PM36 °FMostly cloudy.6 mph87%30.21 "HgN/A
4:00 PM36 °FLight rain. Mostly cloudy.6 mph93%30.24 "HgN/A
3:30 PM36 °FMostly cloudy.8 mph93%30.21 "HgN/A
3:00 PM37 °FMostly cloudy.8 mph87%30.21 "HgN/A
2:30 PM37 °FMostly cloudy.6 mph87%30.18 "HgN/A
2:00 PM37 °FMostly cloudy.6 mph87%30.15 "HgN/A
1:30 PM37 °FMostly cloudy.8 mph87%30.15 "HgN/A
1:00 PM37 °FMostly cloudy.8 mph87%30.18 "HgN/A
Weather by CustomWeather, © 2015

See weather overviewHow to use our weather pages